[[{"header":{"parameterUnit":"m.s-1","parameterCategory":1,"la1":30.2991,"la2":30.254,"lo1":-89.0895,"lo2":-89.0444,"dy":0.0017,"dx":0.0017,"nx":28,"ny":28,"refTime":"2023-07-30T03:00:00:Z","depth":0,"parameterNumber":2,"parameterNumberName":"U-component_of_WINDS"},"data":[0,0,0,0,0,0,0,0,0,0,0,0,0,0,0,0,0,0,0,0,0,0,0,0,0,0,0,0,0,0,0,0,0,0,0,0,0,0,0,0,0,0,0,0,0,0,0,0,0,0,0,0,0,0,0,0,0,0,1.7815,1.7816,0,1.7953,1.7955,1.7956,1.7979,1.7977,1.7976,1.7975,1.812,1.8125,1.8129,0,0,0,0,0,0,0,0,0,0,0,0,0,1.7569,1.7573,1.7814,1.7816,1.7818,1.7953,1.7955,1.7957,1.7979,1.7977,1.7976,1.7974,1.8118,1.8124,1.813,0,0,0,0,0,0,0,0,0,0,0,0,0,1.7688,1.7574,1.7814,1.7845,1.7849,1.7953,1.7955,1.7957,1.7979,1.7977,1.7975,1.7974,1.8116,1.8123,1.8131,1.8214,0,0,1.8154,1.8157,0,0,0,0,0,0,0,0,1.7681,1.7697,1.7839,1.7843,1.7848,1.7947,1.7921,1.8043,1.798,1.793,1.7975,1.7973,1.8064,1.8075,1.8106,1.8221,1.8227,1.8154,1.8159,1.8162,1.8164,0,0,0,0,0,0,0,1.7673,1.7691,1.7869,1.7841,1.7846,1.7852,1.7867,1.7945,1.8006,1.7934,1.7936,1.7952,1.8066,1.8098,1.8109,1.8229,1.8154,1.8161,1.8165,1.8168,1.8416,1.8418,0,0,0,0,0,0,1.7659,1.7684,1.7865,1.7874,1.7758,1.7858,1.7875,1.7917,1.8005,1.8016,1.7953,1.7953,1.8086,1.81,1.8114,1.8215,1.8162,1.8169,1.8173,1.8414,1.8417,1.8419,0,0,0,0,0,0,1.7654,1.7675,1.7859,1.778,1.7803,1.7864,1.7911,1.7921,1.7953,1.8019,1.803,1.7975,1.8086,1.8104,1.8188,1.8221,1.8172,1.8179,1.8412,1.8415,1.8418,1.8419,0,0,0,0,0,0,1.7647,1.7673,1.7705,1.778,1.7808,1.7931,1.7913,1.7925,1.7966,1.7966,1.8043,1.8054,1.8086,1.8177,1.8195,1.823,1.8185,1.8409,1.8413,1.8417,1.8417,1.8422,1.8427,0,0,0,0,0,1.7638,1.7701,1.7707,1.7728,1.7849,1.7933,1.7948,1.7983,1.7968,1.8001,1.8043,1.8051,1.8214,1.8185,1.8207,1.8244,1.8407,1.8412,1.8416,1.8414,1.8421,1.8427,0,0,0,0,0,0,1.763,1.7712,1.7719,1.7808,1.7863,1.7936,1.7979,1.7989,1.805,1.8048,1.8089,1.8106,1.8188,1.8225,1.8191,1.8328,1.8309,1.8319,1.83,1.8307,1.8312,1.8302,1.8191,0,0,0,0,0,1.7638,1.7699,1.7767,1.784,1.7867,1.7918,1.7956,1.7977,1.8036,1.806,1.8108,1.8165,1.8229,1.827,1.8333,1.8422,1.8438,1.8458,1.8463,1.8467,1.8474,1.8522,1.8531,1.8434,1.8434,1.8434,0,0,1.7657,1.7709,1.7745,1.784,1.7885,1.7946,1.7937,1.8004,1.8049,1.807,1.8152,1.8189,1.8256,1.8342,1.8382,1.8375,1.8504,1.8473,1.8475,1.8481,1.8527,1.8536,1.8544,1.8437,1.8437,1.8436,0,0,1.7722,1.7769,1.7833,1.7877,1.7945,1.7978,1.7993,1.8064,1.8089,1.8172,1.8188,1.8243,1.8353,1.8398,1.8436,1.8516,1.8525,1.8535,1.8562,1.8607,1.8615,1.8622,1.8648,1.8658,1.8542,1.8542,1.8542,0,1.7737,1.783,1.7865,1.7929,1.797,1.7989,1.8054,1.8096,1.8181,1.8208,1.8199,1.8335,1.8381,1.8477,1.8496,1.8526,1.8544,1.8526,1.8611,1.8618,1.8625,1.8651,1.8661,1.8543,1.8543,1.8543,1.8543,0,1.7844,1.7908,1.7952,1.8032,1.8077,1.8142,1.8185,1.8227,1.8244,1.8278,1.836,1.8416,1.8489,1.8514,1.8532,1.8612,1.8605,1.8603,1.8585,1.8634,1.8659,1.867,1.8544,1.8544,1.8543,1.8543,0,0,1.791,1.8005,1.8021,1.8056,1.8131,1.8181,1.8246,1.8316,1.835,1.8408,1.8462,1.8553,1.8551,1.8593,1.8617,1.8657,1.8714,1.865,1.8652,1.8658,1.8803,1.8803,1.8814,1.872,1.8722,1.8724,1.8797,0,1.7982,1.8098,1.8129,1.8227,1.8285,1.8304,1.836,1.8411,1.8444,1.8499,1.8536,1.8598,1.8591,1.8617,1.8658,1.8698,1.8743,1.8693,1.8771,1.8773,1.8752,1.8827,1.8829,1.8895,1.8807,1.8809,1.881,0,1.8083,1.814,1.8243,1.8308,1.8334,1.8384,1.8449,1.8501,1.856,1.8581,1.8627,1.8646,1.8713,1.8692,1.8784,1.875,1.8783,1.8807,1.8811,1.8819,1.8794,1.8836,1.8917,1.8926,1.8826,1.8825,1.8823,0,1.8118,1.8221,1.8295,1.8325,1.8404,1.8438,1.8472,1.8528,1.8568,1.8625,1.8651,1.8716,1.8751,1.8801,1.8836,1.8818,1.8925,1.8907,1.8944,1.8943,1.8965,1.8963,1.9051,1.8988,1.8988,1.8988,1.8988,0,1.8195,1.8257,1.8312,1.8357,1.8426,1.8462,1.8529,1.8564,1.8614,1.8666,1.8687,1.8736,1.878,1.8834,1.8863,1.8934,1.895,1.8969,1.8975,1.8966,1.8964,1.8988,1.8984,1.8991,1.899,1.899,1.8989,0,1.8246,1.8286,1.8367,1.8434,1.8452,1.8499,1.8556,1.8601,1.8633,1.8699,1.8717,1.8768,1.8833,1.8873,1.8956,1.8975,1.9053,1.9059,1.9033,1.9036,1.9069,1.9065,1.9175,1.9191,1.9118,1.9119,1.912,0,1.8292,1.834,1.8411,1.8447,1.8481,1.8539,1.8578,1.8614,1.8655,1.8723,1.8759,1.8825,1.8879,1.8982,1.9027,1.909,1.9096,1.9131,1.9106,1.9095,1.9095,1.9091,1.9095,1.9135,1.9135,1.9136,1.9136,0,1.837,1.8386,1.8442,1.8504,1.855,1.8601,1.8652,1.868,1.8725,1.8769,1.8835,1.8877,1.896,1.9025,1.9091,1.9126,1.9138,1.9143,1.9155,1.9146,1.9128,1.9136,1.9042,1.9141,1.914,1.914,1.914,1.9139,1.8419,1.8461,1.8516,1.8577,1.8619,1.8665,1.871,1.8747,1.8802,1.8872,1.889,1.8958,1.9014,1.9104,1.914,1.9194,1.9189,1.9206,1.921,1.9214,1.9213,1.912,1.9206,1.9206,1.9206,1.9206,1.9206,0,1.8496,1.8532,1.8587,1.8657,1.8704,1.871,1.8766,1.8806,1.8865,1.8915,1.8968,1.9042,1.9104,1.9153,1.9217,1.925,1.9257,1.9266,1.9263,1.927,1.9215,1.9198,1.9259,1.9259,1.9259,1.9259,1.9259,1.9259,1.8541,1.8612,1.8634,1.8726,1.8762,1.8828,1.8859,1.8901,1.8941,1.9023,1.9074,1.9105,1.9155,1.9221,1.9278,1.9291,1.9313,1.932,1.9334,1.9281,1.9275,1.9269,1.9253,1.9325,1.9325,1.9385,1.9385,1.9386]},{"header":{"parameterUnit":"m.s-1","parameterCategory":1,"la1":30.2991,"la2":30.254,"lo1":-89.0895,"lo2":-89.0444,"dy":0.0017,"dx":0.0017,"nx":28,"ny":28,"refTime":"2023-07-30T03:00:00:Z","depth":0,"parameterNumber":3,"parameterNumberName":"V-component_of_WINDS"},"data":[0,0,0,0,0,0,0,0,0,0,0,0,0,0,0,0,0,0,0,0,0,0,0,0,0,0,0,0,0,0,0,0,0,0,0,0,0,0,0,0,0,0,0,0,0,0,0,0,0,0,0,0,0,0,0,0,0,0,4.6,4.6,0,4.5973,4.5972,4.5972,4.5945,4.5945,4.5945,4.5944,4.5915,4.5914,4.5914,0,0,0,0,0,0,0,0,0,0,0,0,0,4.6027,4.6027,4.6,4.6,4.5999,4.5973,4.5972,4.5972,4.5946,4.5945,4.5945,4.5944,4.5915,4.5914,4.5914,0,0,0,0,0,0,0,0,0,0,0,0,0,4.6009,4.6026,4.6,4.5983,4.5981,4.5973,4.5972,4.5972,4.5946,4.5945,4.5945,4.5944,4.5915,4.5915,4.5914,4.592,0,0,4.5912,4.5911,0,0,0,0,0,0,0,0,4.601,4.6008,4.5986,4.5984,4.5982,4.5962,4.5971,4.5954,4.5946,4.5959,4.5944,4.5944,4.5931,4.5929,4.5925,4.5918,4.5917,4.5912,4.5911,4.5911,4.5911,0,0,0,0,0,0,0,4.6011,4.6009,4.5989,4.5986,4.5983,4.5976,4.5973,4.5968,4.5948,4.5958,4.5956,4.5953,4.593,4.5926,4.5924,4.5916,4.5912,4.5911,4.5911,4.591,4.5911,4.5911,0,0,0,0,0,0,4.6015,4.601,4.599,4.5988,4.5995,4.5976,4.5972,4.5969,4.5948,4.5944,4.5954,4.5952,4.5927,4.5925,4.5923,4.5926,4.5911,4.591,4.591,4.591,4.5911,4.5911,0,0,0,0,0,0,4.6016,4.6014,4.5991,4.5999,4.5995,4.5976,4.5972,4.5969,4.5964,4.5945,4.5941,4.5953,4.5926,4.5924,4.592,4.5925,4.591,4.5909,4.591,4.591,4.5911,4.5935,0,0,0,0,0,0,4.6017,4.6014,4.6017,4.5999,4.5995,4.599,4.5973,4.5969,4.5963,4.5961,4.5943,4.594,4.5926,4.5921,4.5919,4.5924,4.5909,4.5909,4.591,4.5911,4.5934,4.5936,4.5939,0,0,0,0,0,4.6018,4.6025,4.6017,4.6015,4.5998,4.599,4.5988,4.5972,4.5964,4.5966,4.5953,4.594,4.5925,4.5921,4.5919,4.5923,4.5909,4.591,4.5911,4.5932,4.5936,4.5939,0,0,0,0,0,0,4.6044,4.6022,4.6014,4.6015,4.6005,4.5986,4.5988,4.5977,4.5968,4.5966,4.5946,4.5942,4.5941,4.5932,4.5928,4.5926,4.5915,4.5916,4.5932,4.5935,4.5938,4.594,4.5908,0,0,0,0,0,4.605,4.6046,4.6027,4.603,4.6025,4.6008,4.6004,4.5992,4.5981,4.5976,4.5963,4.5951,4.5944,4.5939,4.5931,4.5932,4.5927,4.5934,4.5936,4.5939,4.5939,4.5937,4.5939,4.5914,4.5914,4.5914,0,0,4.6062,4.605,4.6048,4.6035,4.6026,4.6021,4.6004,4.6001,4.5996,4.5975,4.5971,4.5961,4.5946,4.5945,4.5943,4.5937,4.5945,4.594,4.5942,4.5941,4.5938,4.594,4.5942,4.5915,4.5915,4.5915,0,0,4.6081,4.6072,4.6073,4.6064,4.605,4.6038,4.6038,4.602,4.6013,4.6008,4.5992,4.5986,4.5974,4.5964,4.5957,4.5971,4.5959,4.5969,4.5982,4.598,4.5982,4.5984,4.5987,4.5989,4.597,4.597,4.597,0,4.6097,4.6091,4.6074,4.6071,4.6065,4.6046,4.6046,4.6037,4.6022,4.6017,4.6011,4.5994,4.5983,4.5977,4.5981,4.5977,4.5975,4.5971,4.5983,4.5985,4.5986,4.5989,4.599,4.5971,4.5971,4.5971,4.5971,0,4.6111,4.6106,4.6108,4.6093,4.6087,4.6086,4.6068,4.6064,4.6053,4.6041,4.6036,4.6022,4.601,4.6008,4.5997,4.6,4.5997,4.5987,4.5975,4.599,4.5992,4.5993,4.5973,4.5973,4.5972,4.5972,0,0,4.6145,4.6121,4.6122,4.6114,4.6097,4.6092,4.6089,4.6078,4.6074,4.6063,4.6059,4.6048,4.6039,4.6031,4.6019,4.6018,4.6027,4.6008,4.6007,4.6011,4.6028,4.6035,4.6036,4.6019,4.6019,4.6019,4.6029,0,4.616,4.6154,4.6139,4.6137,4.6131,4.6113,4.611,4.6098,4.6087,4.608,4.6067,4.6059,4.6048,4.6043,4.6041,4.6027,4.603,4.6026,4.6013,4.6013,4.6017,4.6038,4.6045,4.6055,4.603,4.603,4.603,0,4.6177,4.6167,4.6165,4.6147,4.6144,4.6142,4.6129,4.6123,4.6109,4.6101,4.6092,4.6078,4.6072,4.6062,4.6052,4.605,4.6044,4.6036,4.6036,4.6033,4.6022,4.6034,4.6057,4.6058,4.6031,4.6031,4.6031,0,4.62,4.6187,4.6183,4.6178,4.6157,4.6155,4.6146,4.6132,4.6126,4.6114,4.611,4.6098,4.6091,4.6082,4.6065,4.6059,4.6056,4.6045,4.6048,4.6048,4.6048,4.6048,4.6069,4.6046,4.6046,4.6046,4.6046,0,4.6218,4.6217,4.6193,4.6191,4.6189,4.6171,4.6169,4.6158,4.6145,4.6139,4.6122,4.6117,4.6096,4.6087,4.6074,4.6067,4.6064,4.6056,4.6053,4.6057,4.6058,4.6052,4.6051,4.6046,4.6046,4.6046,4.6046,0,4.6243,4.6228,4.6222,4.6203,4.6198,4.6197,4.618,4.6176,4.6164,4.6157,4.6154,4.6134,4.6123,4.6105,4.609,4.608,4.6075,4.607,4.608,4.6078,4.6081,4.6081,4.6099,4.6099,4.6077,4.6077,4.6078,0,4.6255,4.6253,4.6234,4.6229,4.6221,4.6214,4.6207,4.6189,4.6183,4.6166,4.6164,4.6152,4.6141,4.6125,4.6108,4.6095,4.6089,4.6096,4.6086,4.6091,4.6087,4.6087,4.6086,4.6097,4.6098,4.6098,4.6098,0,4.6276,4.6269,4.626,4.6249,4.6242,4.6232,4.6221,4.6218,4.6197,4.619,4.6179,4.6171,4.6155,4.6143,4.6127,4.6117,4.6103,4.6101,4.6101,4.6105,4.6111,4.6107,4.6085,4.6101,4.6101,4.61,4.61,4.61,4.6294,4.6292,4.6277,4.6268,4.6258,4.6248,4.6243,4.623,4.6221,4.6207,4.6197,4.6186,4.617,4.6149,4.6139,4.6129,4.6123,4.6123,4.6123,4.6123,4.6124,4.6113,4.6126,4.6126,4.6126,4.6126,4.6126,0,4.6314,4.6304,4.6295,4.6281,4.6273,4.6263,4.625,4.6243,4.6235,4.6222,4.6212,4.6198,4.6186,4.6168,4.6154,4.615,4.6143,4.6147,4.6146,4.6144,4.6131,4.6132,4.6152,4.6152,4.6152,4.6152,4.6152,4.6152,4.6323,4.6318,4.6308,4.6297,4.6287,4.6277,4.627,4.626,4.625,4.6236,4.6226,4.6215,4.6199,4.6184,4.6171,4.6166,4.6161,4.6166,4.6159,4.6147,4.6145,4.6143,4.6143,4.6166,4.6166,4.6173,4.6173,4.6173]}]]